Location: Ford County Road and Bridge Department
(37.7686°N, 99.9762°W)
Time: 15:37:44
(UTC+00:00)

CZ-3A R/B - Pass Details

Date: 18 January 2020
Orbit: 149 x 13713 km, 24.2° (Epoch: 23 February)

Event Time Altitude Azimuth Distance (km) Brightness Sun altitude
Exits shadow 10:53:53 32° 184° (S) 2,203 4.2 -35.1°
Maximum altitude 10:56:05 37° 155° (SSE) 2,561 4.7 -34.7°
Drops below altitude 10° 11:19:15 10° 100° (E) 9,900 8.5 -30.1°
Sets 11:38:25 0° 96° (E) 14,482 9.8 -26.3°
